Newport, RI

4:51 AM EDT on April 29, 2017 (GMT -0400)
Newport State

Weather History for KUUU - February, 2013

Change the Weather History Date:

Thursday, February 28, 2013

  Actual Average Record
Temperature  
Mean Temperature 40 °F -  
Max Temperature 44 °F 43 °F 62 °F (1976)
Min Temperature 35 °F 27 °F 10 °F (2014)
Degree Days  
Heating Degree Days 26    
Moisture  
Dew Point 36 °F    
Average Humidity 91    
Maximum Humidity 100    
Minimum Humidity 76    
Precipitation  
Precipitation 0.00 in - - ()
Sea Level Pressure  
Sea Level Pressure 29.58 in    
Wind  
Wind Speed 3 mph (NW)    
Max Wind Speed 8 mph    
Max Gust Speed -    
Visibility 9 miles    
Events      
Averages and records for this station are not official NWS values.
T = Trace of Precipitation, MM = Missing Value Source: NWS Daily Summary

Daily Weather History Graph

Daily Weather History Graph

Search for Another Location

Airport or City:

Trip Planner

Search our weather history database for the weather conditions in past years. The results will help you decide how hot, cold, wet, or windy it might be!

Date:

Astronomy

Feb. 28, 2013 Rise Set
Actual Time 6:20 AM EST 5:34 PM EST
Civil Twilight 5:53 AM EST 6:02 PM EST
Nautical Twilight 5:21 AM EST 6:34 PM EST
Astronomical Twilight 4:49 AM EST 7:06 PM EST
Moon 9:01 PM EST (2/28) 7:25 AM EST (2/28)
Length of Visible Light 12h 09m
Length of Day
11h 13m
Waning Gibbous, 91% of the Moon is Illuminated
Feb 28
Waning Gibbous
Mar 4
Last Quarter
Mar 11
New
Mar 19
First Quarter
Mar 27
Full

Hourly Weather History & Observations

Time (EST) Temp. Windchill Dew Point Humidity Pressure Visibility Wind Dir Wind Speed Gust Speed Precip Events Conditions
12:53 AM 39.9 °F 35.8 °F 39.0 °F 97% 29.58 in 1.0 mi West 5.8 mph - N/A   Mist
1:03 AM 39.2 °F 33.6 °F 39.2 °F 100% 29.58 in 3.0 mi WNW 8.1 mph - N/A   Overcast
1:53 AM 39.0 °F 35.7 °F 37.9 °F 96% 29.59 in 9.0 mi WNW 4.6 mph - N/A   Overcast
2:40 AM 37.4 °F 32.1 °F 35.6 °F 93% 29.58 in 10.0 mi NW 6.9 mph - N/A   Overcast
2:53 AM 37.0 °F 34.5 °F 36.0 °F 96% 29.59 in 10.0 mi West 3.5 mph - N/A   Overcast
3:23 AM 35.6 °F 32.8 °F 35.6 °F 100% 29.58 in 10.0 mi NW 3.5 mph - N/A   Scattered Clouds
3:32 AM 35.6 °F 32.8 °F 35.6 °F 100% 29.59 in 10.0 mi West 3.5 mph - N/A   Scattered Clouds
3:41 AM 35.6 °F - 35.6 °F 100% 29.60 in 10.0 mi Calm Calm - N/A   Mostly Cloudy
3:53 AM 36.0 °F - 35.1 °F 97% 29.61 in 10.0 mi Calm Calm - N/A   Overcast
4:53 AM 36.0 °F - 35.1 °F 97% 29.62 in 10.0 mi Calm Calm - N/A   Overcast
4:56 AM 35.6 °F - 35.6 °F 100% 29.62 in 10.0 mi Calm Calm - N/A   Overcast
5:53 AM 36.0 °F - 35.1 °F 97% 29.62 in 10.0 mi Calm Calm - N/A   Scattered Clouds
6:19 AM 35.6 °F - 33.8 °F 93% 29.61 in 7.0 mi Calm Calm - N/A   Scattered Clouds
6:50 AM 35.6 °F - 33.8 °F 93% 29.61 in 4.0 mi Calm Calm - N/A   Mostly Cloudy
6:53 AM 36.0 °F 33.3 °F 34.0 °F 93% 29.61 in 4.0 mi WNW 3.5 mph - N/A   Mostly Cloudy
7:53 AM 36.0 °F 31.1 °F 35.1 °F 97% 29.63 in 9.0 mi NW 5.8 mph - N/A   Overcast
8:12 AM 35.6 °F 30.7 °F 35.6 °F 100% 29.64 in 8.0 mi NW 5.8 mph - N/A   Overcast
9:40 AM 39.2 °F 35.9 °F 37.4 °F 93% 29.61 in 10.0 mi NNE 4.6 mph - 0.00 in   Scattered Clouds
9:53 AM 39.9 °F 37.8 °F 37.0 °F 89% 29.62 in 10.0 mi NNE 3.5 mph - 0.00 in   Mostly Cloudy
10:53 AM 39.0 °F - 36.0 °F 89% 29.62 in 10.0 mi Calm Calm - N/A   Overcast
11:31 AM 39.2 °F - 35.6 °F 87% 29.61 in 10.0 mi Calm Calm - 0.00 in   Overcast
11:53 AM 39.9 °F - 37.0 °F 89% 29.60 in 10.0 mi Calm Calm - 0.00 in   Overcast
12:41 PM 42.8 °F - 37.4 °F 81% 29.57 in 10.0 mi Calm Calm - N/A   Overcast
12:53 PM 41.0 °F - 37.9 °F 89% 29.57 in 10.0 mi Calm Calm - N/A   Overcast
1:14 PM 42.8 °F - 39.2 °F 87% 29.56 in 10.0 mi Calm Calm - N/A   Overcast
1:26 PM 42.8 °F 41.1 °F 37.4 °F 81% 29.55 in 10.0 mi NNE 3.5 mph - N/A   Mostly Cloudy
1:53 PM 44.1 °F 42.5 °F 37.0 °F 76% 29.55 in 10.0 mi NW 3.5 mph - N/A   Mostly Cloudy
2:53 PM 44.1 °F 40.1 °F 37.0 °F 76% 29.53 in 10.0 mi NW 6.9 mph - N/A   Scattered Clouds
3:53 PM 44.1 °F - 37.9 °F 79% 29.54 in 10.0 mi Calm Calm - N/A   Overcast
4:53 PM 43.0 °F - 37.0 °F 80% 29.53 in 10.0 mi Calm Calm - N/A   Overcast
5:53 PM 41.0 °F - 36.0 °F 82% 29.53 in 10.0 mi Calm Calm - N/A   Overcast
6:53 PM 39.9 °F - 36.0 °F 86% 29.53 in 10.0 mi Calm Calm - N/A   Overcast
7:53 PM 39.9 °F - 36.0 °F 86% 29.53 in 10.0 mi Calm Calm - N/A   Partly Cloudy
8:41 PM 39.2 °F - 37.4 °F 93% 29.53 in 8.0 mi Calm Calm - N/A   Mostly Cloudy
8:53 PM 39.0 °F - 37.0 °F 93% 29.53 in 8.0 mi Calm Calm - N/A   Mostly Cloudy
9:02 PM 39.2 °F - 35.6 °F 87% 29.53 in 8.0 mi Calm Calm - N/A   Scattered Clouds
9:53 PM 37.9 °F - 36.0 °F 93% 29.52 in 7.0 mi Calm Calm - N/A   Overcast
10:53 PM 37.9 °F 35.5 °F 36.0 °F 93% 29.52 in 9.0 mi WNW 3.5 mph - N/A   Scattered Clouds
11:53 PM 37.9 °F 34.4 °F 35.1 °F 89% 29.52 in 10.0 mi NW 4.6 mph - N/A   Mostly Cloudy